{"data":{"norad_id":62491,"epoch":"2026-05-24T22:24:04.768128Z","epoch_age_seconds":80819,"freshness":"FRESH","line1":"1 62491U 25003E   26144.93338852  .00011245  00000+0  41739-3 0  9999","line2":"2 62491  43.0018 218.2557 0002433 277.9067  82.1508 15.27590454 78337","mean_motion":15.27590454,"eccentricity":0.0002433,"inclination_deg":43.0018,"raan_deg":218.2557,"arg_perigee_deg":277.9067,"mean_anomaly_deg":82.1508,"bstar":0.00041739,"rev_number":7833,"period_min":94.266103603185,"perigee_km":481.34847422018,"apogee_km":484.68711214254,"semimajor_km":6861.1547931814,"source":"CELESTRAK","updated_at":"2026-05-25T13:38:19.696931Z"}}